Location: Bailey Volunteer Fire Department
(33.4359°N, 96.1680°W)
Time: 17:22:57
(UTC+00:00)

Cosmos 1825 Rocket - Pass Details

Date: 13 December 2025
Orbit: 596 x 624 km, 82.5° (Epoch: 13 January)

Event Time Altitude Azimuth Distance (km) Brightness Sun altitude
Rises 12:31:44 0° 178° (S) 2,889 7.3 -10.0°
Reaches altitude 10° 12:33:58 10° 176° (S) 1,986 6.5 -9.6°
Maximum altitude 12:38:20 66° 94° (E) 682 4.1 -8.8°
Drops below altitude 10° 12:42:43 10° 13° (NNE) 1,992 6.1 -7.9°
Sets 12:44:57 0° 10° (N) 2,898 6.9 -7.5°
